This is the latest recevied weather packets stored in our database for station/object N5PRN. If no packets are shown the sender has not sent any weather packets the latest 10 day(s).
| Time | Temp. | Humidity | Pressure | Rain* | Wind** | Luminosity | Snow |
|---|---|---|---|---|---|---|---|
| 1778028649 | 24.44° C | 90% | 1008.2 hPa | 0 mm | - | 0 W/m² | - |
| 1778028347 | 24.44° C | 90% | 1008.2 hPa | 0 mm | - | 3 W/m² | - |
| 1778028043 | 25° C | 90% | 1008.4 hPa | 0 mm | - | 5 W/m² | - |
| 1778027740 | 25° C | 90% | 1008.6 hPa | 0 mm | - | 10 W/m² | - |
| 1778027436 | 25° C | 89% | 1008.4 hPa | 0 mm | - | 17 W/m² | - |
| 1778027132 | 25° C | 89% | 1008.2 hPa | 0 mm | - | 19 W/m² | - |
| 1778026828 | 25° C | 89% | 1008.3 hPa | 0 mm | - | 21 W/m² | - |
| 1778026525 | 25° C | 89% | 1008.3 hPa | 0 mm | - | 26 W/m² | - |
| 1778026222 | 25° C | 89% | 1008.2 hPa | 0 mm | - | 30 W/m² | - |
| 1778025920 | 25° C | 89% | 1008.2 hPa | 0 mm | - | 38 W/m² | - |
| 1778025617 | 25° C | 89% | 1008.4 hPa | 0 mm | - | 47 W/m² | - |
| 1778025315 | 25° C | 89% | 1008.2 hPa | 0 mm | - | 52 W/m² | - |
| 1778025011 | 25° C | 89% | 1008.2 hPa | 0 mm | - | 51 W/m² | - |
| 1778024708 | 25° C | 89% | 1008.3 hPa | 0 mm | - | 47 W/m² | - |
| 1778024405 | 25° C | 89% | 1008.2 hPa | 0 mm | - | 58 W/m² | - |
| 1778024103 | 25.56° C | 89% | 1008.3 hPa | 0 mm | - | 42 W/m² | - |
| 1778023800 | 25.56° C | 88% | 1008 hPa | 0 mm | - | 40 W/m² | - |
| 1778023498 | 25.56° C | 88% | 1008 hPa | 0 mm | - | 79 W/m² | - |
| 1778023195 | 25.56° C | 87% | 1008.2 hPa | 0 mm | - | 125 W/m² | - |
| 1778022891 | 25.56° C | 87% | 1008.4 hPa | 0 mm | - | 84 W/m² | - |
| 1778022589 | 25.56° C | 87% | 1008.3 hPa | 0 mm | - | 116 W/m² | - |
| 1778022282 | 25.56° C | 87% | 1008.3 hPa | 0 mm | - | 141 W/m² | - |
| 1778021978 | 25.56° C | 87% | 1008.3 hPa | 0 mm | - | 157 W/m² | - |
| 1778021674 | 25.56° C | 87% | 1008.2 hPa | 0 mm | - | 122 W/m² | - |
| 1778021371 | 25.56° C | 88% | 1008.4 hPa | 0 mm | - | 85 W/m² | - |
* Rain latest hour (hover to see other rain measurements)
** Current wind speed in m/s (hover to see current wind gust speed)